Flag for Hong Kong Weather past 2 weeks in Kowloon, Hong Kong

Now
82 °F

Passing clouds.


Feels Like: 86 °F
Forecast: 75 / 84 °F
Wind: 12 mph from West

Location: National Airport

Current Time: Apr 27, 2015 at 4:01:20 PM

Latest Report: Apr 27, 2015 at 3:30 PM


Visibility: N/A

Pressure: 29.89 "Hg

Humidity: 66%

Dew point: 70 °F

Location of KowloonLocation

Historic Weather in Kowloon — Graph

°F

Kowloon temperature yesterday

Maximum temperature yesterday: 82 °F (at 12:30 PM)
Minimum temperature yesterday: 73 °F (at 12:30 AM)
Average temperature yesterday: 77 °F

Past Weeks' High & Low Weather Summary

 TemperatureHumidityPressure
High86 °F (Apr 18, 1:30 PM)94% (Apr 20, 10:30 PM)30.15 "Hg (Apr 20, 10:30 PM)
Low64 °F (Apr 13, 5:00 AM)17% (Apr 14, 10:00 AM)29.68 "Hg (Apr 20, 4:00 AM)
Average76 °F63%29.96 "Hg
* Reported Apr 12 3:00 PM — Apr 27 3:00 PM, Kowloon, Weather by CustomWeather, © 2015

Note: Actual official high and low records may vary slightly from our data, if they occured in-between our weather recording intervals... More about our weather records

Advertising

Kowloon weather history for previous 24 hours

 ConditionsComfort  
Time TempWeatherWind HumidityBarometerVisibility
3:00 PM
Mon, Apr 27
84 °FPassing clouds.12 mph58%29.89 "HgN/A
2:30 PM84 °FPassing clouds.8 mph58%29.92 "HgN/A
2:00 PM84 °FPassing clouds.8 mph58%29.92 "HgN/A
1:30 PM82 °FPassing clouds.9 mph66%29.92 "HgN/A
1:00 PM82 °FPassing clouds.9 mph62%29.95 "HgN/A
12:30 PM82 °FPassing clouds.9 mph62%29.98 "HgN/A
12:00 PM81 °FPassing clouds.9 mph66%29.98 "HgN/A
11:30 AM82 °FPassing clouds.7 mph62%29.98 "HgN/A
11:00 AM82 °FPassing clouds.12 mph62%29.98 "HgN/A
10:30 AM82 °FPassing clouds.7 mph58%30.01 "HgN/A
10:00 AM79 °FPassing clouds.10 mph65%30.01 "HgN/A
9:30 AM79 °FPassing clouds.10 mph65%30.01 "HgN/A
9:00 AM79 °FPassing clouds.12 mph65%30.01 "HgN/A
8:30 AM77 °FPassing clouds.12 mph69%30.01 "HgN/A
8:00 AM77 °FPassing clouds.9 mph69%29.98 "HgN/A
7:30 AM75 °FSunny.12 mph74%29.98 "Hg10 mi
7:00 AM73 °FSunny.13 mph78%29.98 "Hg10 mi
6:30 AM73 °FPassing clouds.8 mph78%29.98 "HgN/A
6:00 AM73 °FSunny.8 mph78%29.98 "Hg10 mi
5:30 AM73 °FClear.9 mph74%29.95 "Hg10 mi
5:00 AM73 °FPassing clouds.8 mph74%29.95 "HgN/A
4:30 AM73 °FClear.8 mph74%29.95 "Hg10 mi
4:00 AM73 °FPassing clouds.7 mph74%29.95 "HgN/A
3:30 AM73 °FClear.8 mph78%29.95 "Hg10 mi
3:00 AM75 °FClear.8 mph69%29.95 "Hg10 mi
2:30 AM73 °FPassing clouds.7 mph69%29.95 "HgN/A
2:00 AM73 °FPassing clouds.6 mph74%29.95 "HgN/A
1:30 AM73 °FClear.7 mph74%29.95 "Hg10 mi
1:00 AM75 °FPassing clouds.8 mph74%29.95 "HgN/A
12:30 AM77 °FClear.9 mph65%29.98 "Hg10 mi
12:00 AM75 °FClear.9 mph69%29.98 "Hg10 mi
11:30 PM
Sun, Apr 26
75 °FClear.9 mph69%29.98 "Hg10 mi
11:00 PM75 °FClear.9 mph69%29.98 "Hg10 mi
10:30 PM75 °FPassing clouds.10 mph69%30.01 "HgN/A
10:00 PM75 °FClear.9 mph69%30.01 "Hg10 mi
9:30 PM75 °FPassing clouds.9 mph69%30.01 "HgN/A
9:00 PM75 °FClear.10 mph69%30.01 "Hg10 mi
8:30 PM77 °FClear.10 mph65%30.01 "Hg10 mi
8:00 PM77 °FClear.10 mph65%29.98 "Hg10 mi
7:30 PM77 °FPassing clouds.5 mph65%29.98 "HgN/A
7:00 PM77 °FPassing clouds.5 mph65%29.98 "HgN/A
6:30 PM77 °FPassing clouds.7 mph65%29.98 "HgN/A
6:00 PM79 °FPassing clouds.8 mph61%29.98 "HgN/A
5:30 PM81 °FPassing clouds.12 mph58%29.98 "HgN/A
5:00 PM82 °FPassing clouds.8 mph55%29.95 "HgN/A
4:30 PM82 °FPassing clouds.7 mph58%29.98 "HgN/A
4:00 PM81 °FPassing clouds.7 mph62%29.98 "HgN/A
Weather by CustomWeather, © 2015

See weather overviewHow to use our weather pages